Regional Weather Roundup
Issued by NWS

Home | Current Version | Previous Version | Graphics & Text | Print | Product List | Glossary On
Versions: 1 2 3 4 5 6 7 8 9 10 11 12 13 14 15 16 17 18 19 20 21 22 23 24 25 26 27 28 29 30 31 32 33 34 35 36 37 38 39 40 41 42 43 44 45 46 47 48 49 50
000
ASUS45 KSLC 241610
RWRUT

UTAH REGIONAL WEATHER ROUNDUP
NATIONAL WEATHER SERVICE SALT LAKE CITY UT
1000 AM MDT SUN MAY 24 2015

UTZ001>011-023>025-241700-

NORTHERN UTAH

CITY           SKY/WX    TMP DP  RH WIND       PRES   REMARKS
BRIGHAM CITY   PTSUNNY   56  45  66 CALM      29.97S
HILL AFB       MOSUNNY   54  45  71 VRB2      29.96S
LOGAN          PTSUNNY   53  44  71 S5        29.96F
OGDEN          MOSUNNY   57  46  66 CALM      29.96S
PROVO AIRPORT  PTSUNNY   54  43  66 CALM      29.98R
SALT LAKE CITY LGT RAIN  52  47  83 NE6       29.96S
VERNAL         LGT RAIN  47  41  80 E6        29.95S
WENDOVER       PTSUNNY   61  45  55 N9        29.96S
HEBER CITY     PTSUNNY   48  39  71 CALM      29.99S
WEST JORDAN    CLOUDY    55  46  71 NE5       29.97S

$$

UTZ012>022-026-027-241700-

SOUTHERN/CENTRAL UTAH

CITY           SKY/WX    TMP DP  RH WIND       PRES   REMARKS
BLANDING       CLOUDY    48  41  77 CALM      30.07S
BRYCE CANYON   CLOUDY    46  38  73 VRB5      30.04S
CEDAR CITY     CLOUDY    52  45  77 CALM      29.99R
DELTA          MOSUNNY   55  44  67 SW5       29.98S
HANKSVILLE     SUNNY     54  45  71 CALM      29.98S
MILFORD        MOSUNNY   55  45  68 SE3       29.98S
MOAB/CYNLANDS  PTSUNNY   56  44  64 CALM      29.94F
PRICE          PTSUNNY   51  40  65 SE7       29.97S
ST GEORGE      CLOUDY    61  52  72 CALM      29.97R
KANAB          CLOUDY    52  48  87 S3        30.03S

$$

REGIONAL REPORTS     COLORADO/ARIZONA

CITY           SKY/WX    TMP DP  RH WIND       PRES   REMARKS
CRAIG, CO      LGT RAIN  44  39  82 NW6       29.97R
GRAND JUNCTION PTSUNNY   53  42  66 VRB3      29.95F
RIFLE          PTSUNNY   50  41  71 N3        29.96F
MONTROSE       MOSUNNY   51  38  60 E5        29.98F
CORTEZ         CLOUDY    48  42  80 NW3       30.00S
PAGE, AZ       CLOUDY    57  50  77 CALM      29.97S
GRAND CANYON   CLOUDY    45  38  76 SW9       30.07R
KINGMAN        PTSUNNY   66  38  35 VRB3      29.97S
FLAGSTAFF      CLOUDY    49  36  61 W12       30.08R

$$

REGIONAL REPORTS    NEVADA/IDAHO/WYOMING

CITY           SKY/WX    TMP DP  RH WIND       PRES   REMARKS
LAS VEGAS, NV  CLOUDY    70  48  45 SW6       29.88R
ELY            CLOUDY    49  43  80 MISG      30.04S
ELKO           CLOUDY    52  48  86 SW8       30.02F
POCATELLO, ID  PTSUNNY   54  49  83 NW5       29.99F
BURLEY         MOSUNNY   56  50  80 CALM      29.97S
EVANSTON, WY   CLOUDY    45  39  79 SW7       30.00F
ROCK SPRINGS   SNOW      32  32 100 CALM      29.98S VSB 1/2
KEMMERER       PTSUNNY   46  36  66 W13G20    29.97F

$$


USA.gov is the U.S. government's official web portal to all federal, state and local government web resources and services.